Location: Brunembert
(50.7122°N, 1.8935°E)
Time: 04:15:29
(UTC+00:00)

SME Rocket - Pass Details

Date: 22 April 2021
Orbit: 550 x 2651 km, 99.9° (Epoch: 06 May)

Event Time Altitude Azimuth Distance (km) Brightness Sun altitude
Rises 19:33:48 0° 15° (NNE) 2,749 6.6 -5.8°
Reaches altitude 10° 19:35:44 10° 14° (NNE) 1,892 5.8 -6.1°
Maximum altitude 19:39:37 75° 289° (WNW) 681 3.5 -6.6°
Drops below altitude 10° 19:44:37 10° 205° (SSW) 2,422 6.0 -7.3°
Sets 19:47:22 0° 204° (SSW) 3,608 6.9 -7.7°
